PulseSat

PulseSat

GSAT0214 (GALILEO 18)

Last updated on Dec. 10, 2018, 12:08 a.m. UTC

1 41862U 16069D   18342.55371372  .00000066  00000-0  00000+0 0  9995
2 41862  54.5865 177.3215 0000630 293.7221  66.3259  1.70473460 12801
UTC
Height (km)
Latitude
Longitude
Inclination
Orbital Period

Next 30 passes for location: Hong Kong

Rise time Rise Azimuth (degrees) Set time Set Azimuth (degrees) Duration Max altitude (degrees)

No matching passes for this satellites

PulseSat

PulseSat is the new satellites software and hardware trackering solution by Pulsely.
Satellite Two Line Element Set source: US Air Force Space Command

Download PulseSat for iOS
© 2017 Pulsely Limited